IMS-1

operational
NORAD ID: 32786 Int'l Des: 2008-021 Owner: ISRO Country: IN
LEOCIRCULARRETROGRADESSO

关于 IMS-1

正在加载描述...

实时位置

正在加载3D地球...

即将过境

高度历史

Altitude vs Time

uPlot chart will show altitude changes over time

两行轨道根数

1 32786U 08021D 26062.01408047 .00006507 00000-0 48270-3 0 9999
2 32786 97.9411 45.5653 0006738 90.4859 269.7138 15.03414236967249
Epoch: Mar 3, 2026 • Age: 26 hours

当前状态

高度 585.5 km
速度 7.56 km/s
星下点 -65.79°S, 121.19°W
发射日期 Apr 28, 2008
运行时间 17.8 years
类型 other

技术详情

分类 Payload
质量 90.00 kg
干质量 90.00 kg
总质量 90.00 kg
长度 0.60 m
直径 0.60 m
跨度 0.60 m
形状 Box
制造商 ISRO
平台类型 IMS-1
阶段状态 In Orbit
所有者/国家 ISRO/IN

大型星座

Loading constellations...